Simultaneous Nadir Overpasses (SNOs) Predictions

Prediction of SNOs between GOES-14 and AQUA Satellite Orbit:

Table of predicted SNOs for the next 14.0 days since TLE Epoch: 3/2/2024
Index Date Time (GOES-14) GOES-14 Lat,Lon AQUA Lat,Lon Distance(km) Time Diff (sec)
1 03/03/2024 09:08:22 0.08,-108.38 -0.27,-106.64 196.67 80
2 03/03/2024 21:28:52 -0.09,-108.39 -0.78,-111.61 365.66 80
3 03/05/2024 21:15:49 -0.10,-108.40 0.03,-107.77 71.40 80
4 03/06/2024 09:36:08 0.10,-108.38 1.04,-112.68 489.62 80
5 03/08/2024 09:20:24 0.11,-108.38 0.23,-108.84 52.55 80
6 03/10/2024 09:02:01 0.10,-108.38 -0.61,-105.00 385.14 80
7 03/10/2024 21:22:29 -0.11,-108.40 -0.46,-109.95 177.32 80
8 03/12/2024 21:09:24 -0.11,-108.40 0.38,-106.10 260.93 80
9 03/13/2024 09:29:44 0.11,-108.39 0.67,-111.03 299.41 80
10 03/15/2024 09:11:18 0.11,-108.39 -0.15,-107.17 138.71 80
11 03/15/2024 21:31:46 -0.12,-108.40 -0.94,-112.12 424.23 80
